Regional Weather Roundup
Issued by NWS San Angelo, TX

Home | Current Version | Previous Version | Text Only | Print | Product List | Glossary On
Versions: 1 2 3 4 5 6 7 8 9 10 11 12 13 14 15 16 17 18 19 20 21 22 23 24 25 26 27 28 29 30 31 32 33 34 35 36 37 38 39 40 41 42 43 44 45 46 47 48 49 50
000
ASUS44 KSJT 280710
RWRSJT
WEST CENTRAL TEXAS REGIONAL WEATHER ROUNDUP
NATIONAL WEATHER SERVICE SAN ANGELO TX
200 AM CDT SUN MAY 28 2017

NOTE: "FAIR" INDICATES FEW OR NO CLOUDS BELOW 12,000 FEET WITH NO
SIGNIFICANT WEATHER AND/OR OBSTRUCTIONS TO VISIBILITY.

TXZ049-054-064>066-071>073-076>078-098-099-113-114-127-128-139-140-
154-155-168>170-280800
...LOCATIONS ACROSS WEST CENTRAL TEXAS...

CITY           SKY/WX    TMP DP  RH WIND       PRES   REMARKS
SAN ANGELO     CLEAR     77  67  71 SW6       29.84F
ABILENE        CLEAR     84  70  62 SW17G24   29.81F
DYESS AFB      CLEAR     81  71  71 S8        29.80S
JUNCTION       CLEAR     80  74  81 S7        29.86S
SWEETWATER     PTCLDY    81  66  61 SW12      29.90R
BROWNWOOD      NOT AVBL
COLEMAN        SUNNY     79  68  69 SW7       29.83F
SONORA         CLEAR     75  70  83 CALM      29.93R
OZONA            N/A     75  68  78 CALM      29.92S
BRADY          NOT AVBL
$$

TEXAS PANHANDLE/OKLAHOMA PANHANDLE

CITY           SKY/WX    TMP DP  RH WIND       PRES   REMARKS
AMARILLO       CLEAR     53  48  83 N10       30.10F
BORGER         CLEAR     56  49  77 N5        30.10R
CANADIAN       CLEAR     58  52  78 NE5       30.04F
DALHART        CLEAR     55  46  71 N17       30.14S
DUMAS          PTSUNNY   52  47  82 N16       30.11S
GUYMON         NOT AVBL
HEREFORD       SUNNY     56  48  74 NE13      30.12R
PAMPA          SUNNY     54  49  82 N10       30.08F
PERRYTON       CLEAR     56  50  79 N9        30.06R
$$

SOUTHERN PANHANDLE/SOUTH PLAINS/ROLLING PLAINS

CITY           SKY/WX    TMP DP  RH WIND       PRES   REMARKS
LUBBOCK        CLEAR     63  49  60 N25G38    30.02R
SNYDER         PTCLDY    77  42  29 NE15G25   29.94R
CHILDRESS      CLEAR     67  50  54 N26G37    30.00R
SEMINOLE       MOSUNNY   67  16  13 W7        29.96R
$$

PERMIAN BASIN

CITY           SKY/WX    TMP DP  RH WIND       PRES   REMARKS
MIDLAND        CLEAR     73  48  41 W8        29.92R
ODESSA         CLEAR     77  62  59 SW8       29.93S
WINK           CLOUDY    79  18  10 CALM      29.89R
$$

FAR WEST/SOUTHWEST MOUNTAINS/TRANS PECOS

CITY           SKY/WX    TMP DP  RH WIND       PRES   REMARKS
ALPINE         CLOUDY    77  43  30 CALM      30.09F
DRYDEN           N/A     79  71  76 NW3       29.86S
EL PASO        PTCLDY    80   4   5 NW8       29.99S
FORT STOCKTON  PTCLDY    78  63  59 CALM      29.93F
GUADALUPE PASS CLEAR     75  15  10 SE3       30.12S
MARFA          PTCLDY    70  33  25 NW6       30.09R
PECOS          CLOUDY    76  29  17 CALM      29.91S
$$

DALLAS/FORT WORTH METROPLEX

CITY           SKY/WX    TMP DP  RH WIND       PRES   REMARKS
DFW AIRPORT    PTCLDY    82  74  76 S14       29.74R
FTW MEACHAM    CLEAR     83  75  77 S17       29.73F
DAL-EXECUTIVE  CLOUDY    81  73  76 VRB6      29.76R
GRAND PRAIRIE  PTCLDY    81  71  71 S9G18     29.78R
ADDISON        PTCLDY    81  73  75 S10G17    29.78S
MESQUITE       PTSUNNY   79  70  73 S12G20    29.78S
LANCASTER      MOSUNNY   79  71  75 S8G17     29.78R
$$

NORTH CENTRAL TEXAS

CITY           SKY/WX    TMP DP  RH WIND       PRES   REMARKS
SHRMAN/DENISON RAIN      72  63  74 NW29G39   29.84R
GAINESVILLE    RAIN      67  64  90 NE16      29.83R
BRIDGEPORT     SUNNY     83  72  68 SW14G23   29.72F
DENTON         CLOUDY    82  74  76 S16       29.73F
WAXAHACHIE     SUNNY     78  72  81 S14G20    29.78S
GRANBURY       SUNNY     83  73  73 S14       29.76F
$$

WESTERN NORTH TEXAS

CITY           SKY/WX    TMP DP  RH WIND       PRES   REMARKS
WICHITA FALLS  CLOUDY    76  61  59 N31G39    29.82R
VERNON         SUNNY     77  55  47 NE23G35   29.90R
BRECKENRIDGE   SUNNY     84  70  62 SW9       29.76F
COMANCHE       CLEAR     80  74  82 SW12G18   29.81S
$$

CENTRAL AND SOUTH CENTRAL TEXAS

CITY           SKY/WX    TMP DP  RH WIND       PRES   REMARKS
AUSTIN/BERGSTM CLOUDY    77  73  87 S9        29.82F
WACO           PTCLDY    78  72  81 S13       29.78F
HILLSBORO      SUNNY     79  73  81 SE7       29.80F
TEMPLE         CLOUDY    76  73  91 S16       29.78F
KILLEEN-GRAY   CLOUDY    75  73  94 S14       29.79S
FORT HOOD      LGT RAIN  75  72  90 S15       29.76S
GEORGETOWN     CLOUDY    79  70  73 S14       29.79F
LAGO VISTA     FAIR      76  72  86 S9G17     29.84S
SAN MARCOS       N/A    N/A N/A N/A MISG        N/A
NEW BRAUNFELS  CLOUDY    76  73  91 SW5       29.83S
RANDOLPH AFB   CLOUDY    76  76 100 SE6       29.84R
SAN ANTONIO    MOCLDY    76  72  87 SE6       29.85S
STINSON        CLOUDY    79  73  82 SE8       29.82R
PLEASANTON     NOT AVBL
LA GRANGE      CLOUDY    78  76  94 S8        29.82F
GIDDINGS       PTSUNNY   75  73  91 S10       29.84F
$$

EAST TEXAS

CITY           SKY/WX    TMP DP  RH WIND       PRES   REMARKS
PARIS          CLOUDY    72  63  73 N18G29    29.87R THUNDER
CLARKSVILLE    NOT AVBL
TYLER          CLOUDY    77  75  93 S18       29.80F
LONGVIEW       CLOUDY    76  73  91 S15G23    29.82R
PALESTINE      SUNNY     76  73  90 S9        29.84F
NACOGDOCHES    CLOUDY    77  72  83 SW12      29.84F
$$

TEXAS HILL COUNTRY AND EDWARDS PLATEAU

CITY           SKY/WX    TMP DP  RH WIND       PRES   REMARKS
LLANO          PTSUNNY   79  73  83 S5        29.88R
HORSESHOE BAY  NOT AVBL
KERRVILLE      CLOUDY    76  73  90 SE15      29.87F
FREDERICKSBRG  MOCLDY    75  70  84 S9        29.86F
ROCKSPRINGS    SUNNY     75  73  94 S10       29.92S FOG
HONDO          CLOUDY    78  74  87 E5        29.84F
UVALDE         CLOUDY    78  74  87 CALM      29.82F
DEL RIO        CLEAR     79  70  74 NE6       29.78R
$$

SOUTHEAST TEXAS

CITY           SKY/WX    TMP DP  RH WIND       PRES   REMARKS
COLLEGE STN    PTCLDY    76  74  93 S13       29.84F
CALDWELL       NOT AVBL
CROCKETT       PTSUNNY   75  73  94 S6        29.89S
BRENHAM        CLOUDY    80  74  83 S13       29.86S
HUNTSVILLE     MOCLDY    78  72  81 S12G20    29.86F
CONROE         CLOUDY    79  74  84 S8        29.88R
HOUSTON BUSH   CLOUDY    81  75  82 S10G18    29.87R
HOUSTON HOBBY  MOCLDY    80  76  87 S12       29.86S
PERLAND        CLOUDY    83  75  77 S8        29.88R
WHARTON        CLOUDY    79  74  85 S6        29.87F
$$

THE UPPER TEXAS COAST

CITY           SKY/WX    TMP DP  RH WIND       PRES   REMARKS
ORANGE         CLOUDY    81  79  94 S9        29.88F
PORT ARTHUR    CLOUDY    80  77  90 S14G22    29.86S
GALVESTON      CLOUDY    82  78  88 S20G25    29.88S
ANGLETON       CLOUDY    82  77  84 S13       29.87S
BAY CITY       CLOUDY    80  77  89 S7        29.87F
$$

TEXAS COASTAL BEND, RIO GRANDE PLAINS DEEP SOUTH TEXAS

CITY           SKY/WX    TMP DP  RH WIND       PRES   REMARKS
VICTORIA       CLOUDY    79  76  90 S10       29.86F
BEEVILLE       FAIR     N/A N/A N/A S7        29.86F
ROCKPORT       CLOUDY    81  76  84 S8        29.87S
PORT ARANSAS   CLOUDY    80  76  87 S13G20    29.87S
PORT LAVACA    CLOUDY    79  79 100 CALM      29.87F
CORPUS CHRISTI CLOUDY    81  77  88 S10       29.87S
KINGSVILLE NAS CLOUDY    81  79  94 S6        29.86F
COTULLA        CLOUDY    82  74  76 S17G25    29.77F
LAREDO         CLOUDY    82  73  74 SE15      29.82F
BROWNSVILLE    CLOUDY    83  79  88 S14       29.87F
PORT ISABEL    MOCLDY    82  78  88 S13       29.85F
HEBBRONVILLE   MOSUNNY   76  73  91 CALM      29.88F
MCALLEN        CLOUDY    82  77  84 SE12      29.85F
WESLACO        CLOUDY    81  77  89 S9        29.85F
FALFURRIAS     CLOUDY    80  77  90 SE5       29.86F
EDINBURG       CLOUDY    83  77  80 SE9       29.85F
$$



USA.gov is the U.S. government's official web portal to all federal, state and local government web resources and services.